RH
91 85 84 82 86 86 82 76 73 76 79 86 86 86 84 86 86 92 97 92 89 85 89 86 81 79 73 67 62 58 53 52 48 45 48 45 42 40 40 40 46 38 33
91 88 86 85 87 87 82 78 80 82 86 89 89 89 86 86 86 94 96 93 89 86 87 92 90 82 72 67 65 62 55 50 41 40 47 47 44 40 35 46 32 40 21
75 83 87 87 87 90 80 78 84 84 88 87 86 86 82 88 90 92 96 90 84 88 89 97 92 78 72 61 54 43 44 45 39 30 28 33 36 23 30 33 27 19 11
76 76 80 84 85 85 83 78 84 82 87 89 90 85 80 87 90 91 96 88 85 85 87 98 94 78 73 72 62 41 41 40 33 23 17 16 16 17 19 20 16 12 10
63 67 65 59 62 76 82 80 81 87 89 88 87 89 86 80 85 95 98 95 86 84 89 98 93 77 77 76 66 40 36 30 20 15 15 15 15 15 14 14 15 16 13
59 57 56 63 62 67 77 81 82 84 90 92 87 88 90 90 87 94 99 98 88 86 88 94 90 78 75 72 67 39 26 17 15 14 15 15 14 13 12 12 13 12 12
43 52 61 66 72 70 75 81 83 86 88 93 90 90 93 95 94 93 97 94 89 89 94 96 90 79 71 68 66 51 20 15 13 14 14 14 13 12 11 9 8 9 10
24 38 40 50 57 62 68 76 82 86 87 91 94 95 98 99 94 96 94 80 83 89 93 99 91 81 68 65 63 55 26 14 12 12 12 11 11 10 9 8 7 7 7
19 21 28 35 49 55 58 63 75 84 83 86 93 98 97 99 93 98 93 83 86 92 95 100 89 74 68 64 62 52 27 12 10 11 11 11 9 9 8 7 7 8 8
19 19 21 21 26 44 54 60 68 71 80 86 91 78 74 87 81 87 86 83 80 85 93 93 85 83 73 66 70 46 17 11 9 10 10 10 9 8 7 7 8 9 12
20 18 19 21 21 23 43 58 64 72 86 88 89 78 72 77 80 83 72 74 77 74 82 98 86 75 80 81 62 35 18 10 9 10 9 9 8 8 8 8 8 9 10
26 24 23 24 24 25 32 50 67 76 86 92 92 86 80 77 76 76 79 74 72 83 87 90 92 93 90 70 47 27 22 9 9 10 9 9 9 9 8 8 6 6 7
30 29 28 27 30 31 42 57 67 76 85 94 99 95 89 89 82 85 86 84 88 93 97 100 99 97 84 61 32 15 12 9 9 10 10 10 9 8 6 5 5 5 6
34 32 31 30 30 29 45 64 72 76 84 94 100 100 100 100 96 92 95 94 95 98 100 100 100 95 74 38 55 22 9 9 10 10 10 9 8 6 5 4 5 6 6
34 31 32 32 35 38 56 76 81 86 89 90 96 100 100 100 100 100 100 100 100 100 100 97 90 78 76 80 32 13 10 11 11 10 9 8 6 5 5 5 6 7 8
27 24 27 36 37 43 57 80 83 84 83 83 84 98 100 100 100 100 100 100 100 100 100 99 84 92 85 27 14 11 12 11 11 10 9 7 6 5 6 7 8 9 12
31 28 25 31 37 44 57 77 75 70 65 62 62 64 99 95 100 100 100 100 100 100 100 98 93 45 18 22 15 12 12 12 11 9 8 6 6 7 7 8 8 10 14
24 26 28 31 38 48 60 69 70 68 70 83 89 97 99 95 100 100 100 97 100 100 99 93 68 36 22 14 13 13 14 12 10 9 7 6 7 7 8 8 8 9 12
26 22 25 31 36 51 64 71 75 75 89 98 100 100 99 100 100 100 100 98 99 100 90 48 27 16 14 14 13 17 12 12 9 7 7 7 8 9 10 8 10 11 11
37 33 27 31 39 49 65 74 78 81 93 98 99 99 100 100 100 100 100 99 98 68 45 30 19 19 14 15 17 13 12 10 8 8 9 9 10 9 9 10 12 11 12
40 42 38 37 42 58 72 79 81 86 89 90 99 100 100 100 100 100 99 86 74 59 33 19 20 16 16 17 16 14 10 8 8 8 9 10 10 10 11 12 14 16 17
49 46 52 49 54 69 81 86 91 94 95 98 100 100 100 100 100 97 85 65 37 23 20 19 17 17 17 17 16 11 8 8 9 10 10 10 11 12 13 13 13 15 20
71 67 66 64 70 79 89 92 96 96 100 100 100 100 100 100 91 63 38 28 23 20 20 18 19 20 18 16 12 10 10 10 11 12 12 13 14 14 13 14 14 18 30
83 79 77 78 78 88 95 96 95 96 100 100 100 100 91 66 39 29 24 22 23 21 19 21 22 19 16 13 14 13 12 14 14 15 16 16 16 16 16 16 17 24 44
86 87 84 83 84 88 96 97 97 96 98 98 94 77 61 40 32 28 26 25 22 20 26 24 21 14 14 13 14 14 14 16 16 17 18 17 16 17 18 19 21 29 48
89 87 88 88 89 93 96 97 96 94 92 90 74 56 46 32 31 30 27 25 23 27 26 19 15 14 35 26 17 17 17 19 19 19 19 19 20 22 24 24 23 26 48
Wind_Speed
39 38 37 33 31 28 27 29 29 27 26 26 24 21 19 18 17 14 11 8 10 8 8 6 3 2 3 3 3 3 3 3 2 2 4 5 6 6 1 2 3 6 10
35 38 37 36 34 31 30 32 32 31 30 26 25 23 20 20 18 17 13 11 12 9 6 5 4 3 3 4 4 4 3 1 2 2 5 5 4 4 5 0 5 4 12
37 38 38 38 36 35 33 34 34 33 33 29 26 25 22 19 21 20 16 14 13 11 9 7 4 3 2 3 4 3 2 2 3 4 3 3 3 2 1 3 3 8 15
36 37 38 39 39 38 34 34 34 33 34 31 31 27 25 25 22 20 18 16 16 14 11 8 5 3 1 4 4 3 2 2 2 3 4 4 2 2 0 3 8 14 17
39 40 40 39 40 39 38 35 35 35 34 35 32 29 26 24 22 21 20 18 19 16 15 10 7 4 0 4 5 3 1 1 2 2 2 3 3 4 6 7 15 17 17
41 40 39 39 41 41 40 38 37 37 37 36 33 32 29 27 25 23 24 22 22 21 16 13 9 7 2 3 5 3 1 0 1 2 3 4 4 7 9 14 20 23 24
43 44 43 42 42 43 42 41 40 40 38 37 35 33 32 31 28 25 25 25 25 23 18 16 13 11 5 3 4 3 2 2 2 3 4 5 7 8 11 14 18 24 27
46 46 44 43 42 41 42 42 42 41 39 39 36 35 34 34 29 26 24 25 24 21 20 18 16 15 9 8 9 7 5 5 4 4 4 6 8 10 12 15 18 22 25
43 46 46 45 44 42 42 42 43 42 40 39 37 36 35 34 30 26 23 23 22 21 19 19 18 16 13 12 11 9 8 7 6 6 6 8 9 12 14 15 17 18 19
38 41 44 45 43 43 42 41 42 42 39 39 37 34 34 32 26 24 25 24 23 23 23 21 21 19 18 15 13 12 10 8 7 7 7 8 11 12 14 16 18 19 18
31 36 40 42 41 41 42 42 42 43 42 40 37 34 34 32 29 28 26 26 27 25 24 23 22 20 21 17 14 12 10 9 8 7 8 9 11 13 15 17 19 20 21
25 28 33 40 41 40 42 43 43 44 43 41 39 37 37 35 33 31 31 29 29 31 28 26 27 24 20 17 14 13 11 10 7 8 8 9 11 13 15 17 18 19 22
14 21 26 32 34 36 40 42 43 44 44 43 42 41 40 39 37 35 34 35 34 33 31 30 28 26 22 19 15 13 12 10 8 7 8 9 11 14 16 17 19 20 23
14 18 21 25 30 37 41 42 42 43 42 42 43 42 42 42 40 39 38 38 37 37 35 35 32 28 25 21 16 13 11 9 6 9 8 10 14 16 17 18 20 22 25
14 16 19 23 28 34 41 43 41 41 40 40 41 42 42 40 40 43 42 41 41 41 40 34 32 28 22 18 13 13 10 7 8 8 9 13 16 18 19 20 21 24 26
14 14 18 22 28 33 41 43 42 41 40 40 41 41 41 42 42 42 45 43 42 41 40 34 26 25 21 17 14 11 8 8 7 8 11 14 15 16 18 19 21 23 26
18 17 20 22 26 32 39 43 42 39 37 37 38 40 41 41 41 43 43 40 41 39 32 27 25 21 19 17 16 12 9 7 6 10 12 13 15 16 17 18 20 21 22
26 24 24 23 25 29 36 38 37 36 35 33 32 33 35 37 39 41 37 34 35 34 30 26 23 22 19 17 13 10 7 6 8 10 12 13 15 17 18 20 20 21 23
28 21 21 22 25 28 35 37 35 33 30 30 30 33 34 37 40 38 34 35 34 30 28 26 24 21 20 14 12 8 5 7 8 10 12 13 15 16 18 20 22 22 23
24 26 25 23 24 27 33 37 37 34 31 30 31 30 29 34 35 36 32 33 30 30 26 26 24 21 16 15 8 5 6 7 8 9 11 13 14 15 17 19 22 25 27
25 24 25 25 26 29 35 39 38 36 31 29 30 30 32 32 33 35 34 34 31 28 30 27 24 19 15 9 7 7 6 6 7 9 10 12 13 14 15 18 21 24 27
24 23 25 27 26 30 36 39 38 34 33 32 33 34 34 35 35 34 33 31 32 32 29 26 23 17 12 9 7 7 7 8 8 9 10 11 12 14 16 18 20 22 24
20 19 23 25 25 30 36 39 38 37 35 34 34 34 34 33 32 33 35 36 33 30 28 24 19 15 10 7 6 5 7 9 9 9 9 11 12 14 15 17 19 21 22
17 18 20 23 25 30 34 37 36 36 35 35 36 35 35 35 35 35 34 33 31 28 25 21 16 12 9 6 4 4 7 8 7 7 9 11 13 15 16 16 17 18 20
15 15 18 22 26 31 34 34 35 37 36 36 37 37 37 38 39 35 33 30 26 22 19 16 12 9 7 4 3 6 7 7 7 8 10 11 13 15 16 16 17 17 19
15 15 18 21 25 28 32 34 36 38 39 40 40 41 40 39 37 36 33 26 24 21 17 13 9 7 4 5 5 7 6 7 8 10 11 13 15 16 16 17 16 17 18
Wind_Direction
200 201 203 205 205 205 199 195 189 187 193 194 196 199 200 201 199 201 209 212 199 207 207 211 226 303 330 333 329 333 350 0 6 127 131 115 110 127 82 359 37 352 355
204 204 205 206 208 206 202 199 196 194 201 202 201 202 202 203 203 206 213 206 203 222 201 211 237 287 320 337 335 325 319 345 86 149 161 161 182 202 315 195 347 340 344
206 207 207 208 208 208 207 203 202 203 205 208 205 207 205 204 206 207 207 207 205 218 217 214 243 276 327 354 357 1 41 111 110 95 135 151 157 288 211 282 335 337 339
213 211 209 211 211 212 211 210 207 208 211 212 215 218 211 206 205 208 208 214 212 217 225 218 241 239 337 7 3 12 45 80 90 101 93 91 71 58 227 292 318 335 340
216 213 213 215 214 214 212 213 212 213 214 216 218 222 224 221 212 212 214 222 216 214 218 228 233 213 30 16 7 6 18 58 94 81 56 29 9 357 334 321 324 330 336
219 220 219 217 217 215 214 215 215 216 217 217 219 222 225 226 221 215 216 226 219 222 223 228 226 209 201 11 10 14 33 58 345 340 345 345 346 339 338 328 327 332 336
221 220 219 218 219 218 215 216 218 220 218 219 222 224 224 230 234 228 231 225 220 222 225 227 224 209 206 272 324 324 275 252 276 302 314 323 330 330 329 329 330 331 332
222 222 222 222 222 220 219 218 218 220 220 219 221 224 224 229 232 233 234 228 226 225 224 225 223 218 234 249 259 260 257 262 264 277 302 316 323 326 329 334 332 332 330
224 223 223 224 223 222 221 220 220 220 221 222 224 226 224 223 228 231 230 225 224 227 232 231 225 220 234 243 257 262 258 259 276 290 300 313 320 327 330 327 331 334 330
228 225 223 225 226 224 223 223 223 223 221 221 222 223 216 217 218 226 224 218 216 226 228 227 225 225 234 245 246 242 240 248 259 271 293 312 318 322 327 332 330 327 322
225 224 225 225 226 224 222 222 222 221 219 219 219 218 213 213 218 221 225 220 214 222 230 230 225 229 234 235 238 240 243 247 259 283 294 308 318 326 328 328 325 323 319
230 228 225 225 225 223 220 220 221 222 221 220 219 218 215 212 214 219 219 217 222 223 225 225 223 225 227 229 234 235 235 243 253 274 296 311 318 323 324 322 320 320 318
235 229 229 231 230 224 219 217 218 221 222 220 220 220 220 217 216 219 221 222 223 223 224 224 224 223 222 223 218 219 229 236 252 282 295 306 318 318 318 320 319 319 319
224 228 231 230 227 225 221 217 217 218 218 220 221 222 223 223 221 220 223 224 223 223 224 221 213 216 218 207 209 220 223 235 254 276 295 313 315 316 320 320 321 321 321
238 238 239 236 231 223 218 215 215 216 215 216 219 221 224 227 225 223 222 223 220 219 216 207 205 209 218 215 200 215 226 236 268 286 307 315 316 320 320 322 324 324 324
248 254 252 241 234 226 218 214 214 214 217 219 221 221 222 225 227 223 217 221 213 209 207 215 206 208 200 193 195 216 227 245 270 296 313 312 314 317 319 324 325 323 323
245 249 256 247 240 230 219 214 213 213 216 220 223 224 220 222 223 216 216 211 206 205 200 201 199 185 183 188 202 210 226 252 288 298 306 310 315 319 321 320 320 320 324
287 281 267 252 240 230 221 217 215 216 218 219 223 217 218 219 220 213 206 216 201 200 197 191 184 187 187 193 196 205 233 266 288 301 308 313 318 321 321 319 319 327 334
283 271 271 256 243 227 218 215 215 218 217 219 214 213 212 212 207 203 200 199 194 187 185 181 182 188 189 187 200 217 241 280 297 306 310 317 320 320 319 323 330 333 333
289 273 264 247 233 223 214 211 211 212 211 208 210 209 206 202 197 195 192 189 186 179 175 176 183 182 185 193 203 224 264 285 299 306 315 317 318 322 328 331 333 332 334
295 271 257 249 235 219 211 209 209 209 205 202 204 203 199 197 196 190 188 181 176 175 176 179 178 184 186 191 217 248 270 289 302 314 316 319 325 331 334 334 333 335 334
285 270 248 238 228 216 210 209 207 203 201 200 200 199 197 194 190 185 177 175 172 175 174 179 178 174 184 204 235 266 296 310 322 320 321 325 331 335 335 334 333 332 332
280 261 242 234 223 213 210 207 204 200 198 196 194 191 186 182 180 176 173 172 175 176 175 174 175 180 190 209 240 275 308 319 322 322 326 332 334 336 336 334 332 331 333
277 253 237 227 219 211 208 210 204 199 196 192 188 183 178 173 173 175 176 174 173 174 174 175 179 183 192 211 239 291 307 316 321 327 329 336 339 337 336 333 332 334 339
272 251 235 224 216 210 206 204 201 196 191 187 181 176 175 173 171 173 172 172 170 175 176 176 180 188 198 223 275 294 300 313 322 328 331 331 332 333 334 337 338 339 341
272 248 231 222 213 208 202 200 198 194 190 183 178 177 174 171 168 166 161 166 172 172 174 175 181 186 232 276 279 285 306 313 324 326 330 336 337 336 339 342 342 338 339